When you browse on this site, cookies collect data to enhance your experience and personalize the content and advertising you see.
Visit our Privacy Policy to learn more. By continuing to use the site, you agree to this use of cookies and data.
  • In Hungary
  • List of Countries
  • For 7 days
  • Water Temperature
  • Weather Map
  • News
  • Weather Widgets
  • user-avatar
    Login

    Hourly Weather Pernik

    Today, 3 June, Wednesday

    Time Temperature Precipitation Wind Pressure Humidity
    00:00 +7°C° 0 mm 1 mps 685 mmHg 89%
    01:00 +6°C° 0 mm 1 mps 685 mmHg 89%
    02:00 +6°C° 0 mm 1 mps 685 mmHg 89%
    03:00 +6°C° 0 mm 1 mps 685 mmHg 89%
    04:00 +5°C° 0 mm 1 mps 685 mmHg 89%
    05:00 +4°C° 0 mm 0 mps 684 mmHg 90%
    06:00 +7°C° 0 mm 1 mps 685 mmHg 85%
    07:00 +9°C° 0 mm 1 mps 685 mmHg 80%
    08:00 +11°C° 0 mm 1 mps 686 mmHg 75%
    09:00 +12°C° 0 mm 1 mps 686 mmHg 69%
    10:00 +14°C° 0 mm 2 mps 686 mmHg 63%
    11:00 +15°C° 0 mm 2 mps 686 mmHg 57%
    12:00 +16°C° 0.1 mm 2 mps 686 mmHg 53%
    13:00 +17°C° 0.1 mm 2 mps 686 mmHg 50%
    14:00 +17°C° 0.1 mm 2 mps 686 mmHg 47%
    15:00 +17°C° 0 mm 2 mps 686 mmHg 48%
    16:00 +17°C° 0 mm 2 mps 686 mmHg 50%
    17:00 +17°C° 0 mm 2 mps 685 mmHg 51%
    18:00 +15°C° 0.1 mm 2 mps 685 mmHg 60%
    19:00 +14°C° 0.1 mm 1 mps 685 mmHg 68%
    20:00 +12°C° 0.1 mm 1 mps 684 mmHg 77%
    21:00 +11°C° 0 mm 1 mps 685 mmHg 79%
    22:00 +10°C° 0 mm 1 mps 685 mmHg 80%
    23:00 +10°C° 0 mm 1 mps 685 mmHg 82%

    Tomorrow, 4 June, Thursday

    Time Temperature Precipitation Wind Pressure Humidity
    00:00 +10°C° 0 mm 1 mps 685 mmHg 83%
    01:00 +9°C° 0 mm 1 mps 685 mmHg 84%
    02:00 +9°C° 0 mm 1 mps 685 mmHg 85%
    03:00 +9°C° 0 mm 1 mps 685 mmHg 85%
    04:00 +8°C° 0 mm 1 mps 685 mmHg 85%
    05:00 +8°C° 0 mm 1 mps 685 mmHg 86%
    06:00 +10°C° 0 mm 1 mps 685 mmHg 80%
    07:00 +12°C° 0 mm 1 mps 686 mmHg 74%
    08:00 +15°C° 0 mm 1 mps 686 mmHg 69%
    09:00 +16°C° 0 mm 2 mps 687 mmHg 64%
    10:00 +18°C° 0 mm 3 mps 687 mmHg 58%
    11:00 +20°C° 0 mm 3 mps 688 mmHg 53%
    12:00 +21°C° 0.1 mm 3 mps 688 mmHg 51%
    13:00 +21°C° 0.1 mm 4 mps 688 mmHg 49%
    14:00 +22°C° 0.1 mm 4 mps 688 mmHg 47%
    15:00 +22°C° 0 mm 4 mps 687 mmHg 49%
    16:00 +22°C° 0 mm 4 mps 687 mmHg 51%
    17:00 +22°C° 0 mm 4 mps 687 mmHg 53%
    18:00 +19°C° 0 mm 4 mps 687 mmHg 60%
    19:00 +17°C° 0 mm 3 mps 687 mmHg 68%
    20:00 +14°C° 0 mm 3 mps 686 mmHg 75%
    21:00 +15°C° 0 mm 2 mps 687 mmHg 76%
    22:00 +14°C° 0 mm 2 mps 687 mmHg 77%
    23:00 +13°C° 0 mm 2 mps 687 mmHg 78%

    Day after tomorrow, 5 June, Friday

    Time Temperature Precipitation Wind Pressure Humidity
    00:00 +12°C° 0 mm 2 mps 687 mmHg 80%
    01:00 +12°C° 0 mm 2 mps 687 mmHg 83%
    02:00 +11°C° 0 mm 1 mps 687 mmHg 85%
    03:00 +11°C° 0 mm 1 mps 686 mmHg 86%
    04:00 +11°C° 0 mm 1 mps 686 mmHg 87%
    05:00 +11°C° 0 mm 1 mps 686 mmHg 88%
    06:00 +13°C° 0 mm 2 mps 686 mmHg 82%
    07:00 +15°C° 0 mm 2 mps 687 mmHg 76%
    08:00 +17°C° 0 mm 2 mps 687 mmHg 70%
    09:00 +19°C° 0 mm 3 mps 687 mmHg 64%
    10:00 +20°C° 0 mm 4 mps 688 mmHg 57%
    11:00 +22°C° 0 mm 5 mps 688 mmHg 51%
    12:00 +23°C° 0 mm 5 mps 687 mmHg 49%
    13:00 +23°C° 0 mm 6 mps 687 mmHg 48%
    14:00 +24°C° 0 mm 6 mps 687 mmHg 47%
    15:00 +23°C° 0 mm 5 mps 686 mmHg 52%
    16:00 +22°C° 0 mm 4 mps 686 mmHg 58%
    17:00 +21°C° 0 mm 4 mps 686 mmHg 64%
    18:00 +19°C° 0 mm 3 mps 686 mmHg 69%
    19:00 +18°C° 0 mm 3 mps 686 mmHg 74%
    20:00 +17°C° 0 mm 3 mps 686 mmHg 79%
    21:00 +16°C° 0 mm 2 mps 686 mmHg 82%
    22:00 +16°C° 0 mm 2 mps 686 mmHg 84%
    23:00 +15°C° 0 mm 2 mps 687 mmHg 87%

    6 June, Saturday

    Time Temperature Precipitation Wind Pressure Humidity
    00:00 +15°C° 0.2 mm 1 mps 687 mmHg 87%
    01:00 +14°C° 0.2 mm 1 mps 687 mmHg 88%
    02:00 +14°C° 0.2 mm 1 mps 687 mmHg 88%
    03:00 +14°C° 0.1 mm 1 mps 687 mmHg 88%
    04:00 +13°C° 0.1 mm 1 mps 687 mmHg 88%
    05:00 +13°C° 0.1 mm 1 mps 687 mmHg 88%
    06:00 +14°C° 0 mm 1 mps 687 mmHg 85%
    07:00 +15°C° 0 mm 1 mps 688 mmHg 82%
    08:00 +16°C° 0 mm 1 mps 688 mmHg 79%
    09:00 +18°C° 0.4 mm 2 mps 689 mmHg 73%
    10:00 +19°C° 0.4 mm 2 mps 689 mmHg 68%
    11:00 +20°C° 0.4 mm 3 mps 690 mmHg 63%
    12:00 +20°C° 0.9 mm 3 mps 689 mmHg 62%
    13:00 +21°C° 0.9 mm 3 mps 689 mmHg 61%
    14:00 +21°C° 0.9 mm 3 mps 689 mmHg 60%
    15:00 +21°C° 0.8 mm 3 mps 689 mmHg 62%
    16:00 +21°C° 0.8 mm 3 mps 689 mmHg 65%
    17:00 +20°C° 0.8 mm 2 mps 689 mmHg 67%
    18:00 +19°C° 0.3 mm 2 mps 688 mmHg 72%
    19:00 +17°C° 0.3 mm 2 mps 688 mmHg 77%
    20:00 +15°C° 0.3 mm 1 mps 688 mmHg 82%
    21:00 +15°C° 0 mm 1 mps 688 mmHg 83%
    22:00 +14°C° 0 mm 1 mps 688 mmHg 85%
    23:00 +14°C° 0 mm 1 mps 689 mmHg 86%

    7 June, Sunday

    Time Temperature Precipitation Wind Pressure Humidity
    00:00 +13°C° 0 mm 1 mps 688 mmHg 87%
    01:00 +13°C° 0 mm 1 mps 688 mmHg 88%
    02:00 +12°C° 0 mm 1 mps 688 mmHg 89%
    03:00 +12°C° 0 mm 1 mps 688 mmHg 89%
    04:00 +12°C° 0 mm 1 mps 688 mmHg 89%
    05:00 +11°C° 0 mm 0 mps 688 mmHg 90%
    06:00 +14°C° 0 mm 1 mps 689 mmHg 86%
    07:00 +15°C° 0 mm 1 mps 689 mmHg 82%
    08:00 +18°C° 0 mm 1 mps 690 mmHg 78%
    09:00 +20°C° 0 mm 1 mps 690 mmHg 71%
    10:00 +22°C° 0 mm 1 mps 690 mmHg 64%
    11:00 +24°C° 0 mm 1 mps 691 mmHg 57%
    12:00 +25°C° 0 mm 2 mps 690 mmHg 54%
    13:00 +25°C° 0 mm 2 mps 690 mmHg 51%
    14:00 +26°C° 0 mm 2 mps 690 mmHg 48%
    15:00 +26°C° 0 mm 2 mps 690 mmHg 50%
    16:00 +26°C° 0 mm 2 mps 690 mmHg 52%
    17:00 +26°C° 0 mm 2 mps 689 mmHg 54%
    18:00 +24°C° 0 mm 2 mps 689 mmHg 61%
    19:00 +21°C° 0 mm 1 mps 689 mmHg 69%
    20:00 +19°C° 0 mm 1 mps 688 mmHg 76%
    21:00 +19°C° 0 mm 1 mps 688 mmHg 77%
    22:00 +18°C° 0 mm 1 mps 689 mmHg 79%
    23:00 +16°C° 0 mm 1 mps 689 mmHg 80%

    8 June, Monday

    Time Temperature Precipitation Wind Pressure Humidity
    00:00 +16°C° 0 mm 1 mps 689 mmHg 81%
    01:00 +16°C° 0 mm 1 mps 688 mmHg 83%
    02:00 +14°C° 0 mm 0 mps 688 mmHg 84%
    03:00 +14°C° 0.3 mm 0 mps 688 mmHg 85%
    04:00 +13°C° 0.3 mm 0 mps 688 mmHg 87%
    05:00 +13°C° 0.3 mm 0 mps 688 mmHg 88%
    06:00 +15°C° 0.4 mm 0 mps 688 mmHg 85%
    07:00 +18°C° 0.4 mm 1 mps 688 mmHg 81%
    08:00 +20°C° 0.4 mm 1 mps 689 mmHg 78%
    09:00 +21°C° 0.7 mm 1 mps 689 mmHg 73%
    10:00 +22°C° 0.7 mm 1 mps 689 mmHg 68%
    11:00 +23°C° 0.7 mm 1 mps 689 mmHg 62%
    12:00 +23°C° 0.8 mm 1 mps 689 mmHg 62%
    13:00 +24°C° 0.8 mm 1 mps 689 mmHg 61%
    14:00 +24°C° 0.8 mm 1 mps 689 mmHg 60%
    15:00 +24°C° 1 mm 1 mps 689 mmHg 63%
    16:00 +23°C° 1 mm 1 mps 689 mmHg 66%
    17:00 +23°C° 1 mm 1 mps 688 mmHg 68%
    18:00 +21°C° 0.6 mm 1 mps 688 mmHg 73%
    19:00 +20°C° 0.6 mm 1 mps 688 mmHg 77%
    20:00 +18°C° 0.6 mm 1 mps 688 mmHg 81%
    21:00 +15°C° 0 mm 0 mps 688 mmHg 82%
    22:00 +15°C° 0 mm 0 mps 688 mmHg 83%
    23:00 +14°C° 0 mm 0 mps 688 mmHg 84%
    Show more